DateTimeUTC,F1_A11,F1_S11,BsB_S11,BsG_S11,BsR_S11,BbsB_S11,BbsG_S11,BbsR_S11,BaB_A11,BaG_A11,BaR_A11,Tu_S11,T_S11,Uu_S11,U_S11,P_S11,T1_A11
2021-09-27T03:00:00Z,00000200,21000000,,,,,,,0000.13,0000.20,-000.20,16.2,23.5,,00.0,0670.7,30.9
2021-09-27T03:01:00Z,00000200,21000000,,,,,,,-000.37,-000.33,0000.06,16.3,23.5,,00.0,0670.7,30.9
2021-09-27T03:02:00Z,00000200,21000000,,,,,,,-000.02,0000.18,0000.05,16.3,23.5,,00.0,0670.7,30.9
2021-09-27T03:03:00Z,00000200,61000000,,,,,,,0000.47,-000.27,-000.52,16.3,23.5,,00.0,0670.7,30.9
2021-09-27T03:04:00Z,00000200,41000000,0002.53,0001.75,0001.01,0001.01,0000.28,0000.41,0000.22,0000.61,0000.71,16.7,23.4,,00.0,0671.6,30.9
2021-09-27T03:05:00Z,00000200,01000000,0001.57,0001.98,0000.96,0000.25,0000.54,0000.00,0000.40,0000.44,0000.10,16.7,23.4,,00.0,0671.6,30.9
2021-09-27T03:06:00Z,00000200,01000000,0002.18,0002.09,0000.87,0000.49,0000.29,0000.23,0000.55,0000.39,0000.24,16.6,23.3,,00.0,0671.6,30.8
2021-09-27T03:07:00Z,00000200,01000000,0002.50,0002.32,0001.18,0000.72,0000.63,0000.19,0000.60,0000.50,0000.17,16.5,23.3,,00.0,0671.6,30.8
2021-09-27T03:08:00Z,00000200,01000000,0002.16,0001.93,0001.18,0000.37,0000.19,0000.25,0000.46,0000.61,0000.70,16.5,23.2,,00.0,0671.6,30.8
2021-09-27T03:09:00Z,00000200,01000000,0002.30,0002.24,0001.45,0000.39,0000.04,0000.08,0001.01,0000.72,0000.58,16.4,23.2,,00.0,0671.6,30.8
2021-09-27T03:10:00Z,00000200,01000000,0002.54,0002.13,0001.23,0000.59,0000.34,0000.08,0000.40,0000.21,0000.44,16.4,23.1,,00.0,0671.6,30.8
2021-09-27T03:11:00Z,00000200,01000000,0003.10,0002.27,0001.41,0000.48,0000.35,0000.19,0000.79,0000.98,0000.45,16.3,23.1,,00.0,0671.6,30.8
2021-09-27T03:12:00Z,00000200,01000000,0003.60,0001.82,0001.33,0000.28,0000.23,0000.43,0000.93,0000.89,0000.56,16.3,23.1,,00.0,0671.6,30.8
2021-09-27T03:13:00Z,00000200,01000000,0002.92,0002.12,0001.44,0000.87,0000.68,0000.51,0000.94,0000.77,0000.75,16.4,23.1,,00.0,0671.6,30.8
2021-09-27T03:14:00Z,00000200,01000000,0003.32,0002.26,0001.35,0000.47,0000.45,0000.31,0000.81,0000.72,0000.64,16.5,23.1,,00.0,0671.6,30.8
2021-09-27T03:15:00Z,00000200,01000000,0003.45,0002.02,0001.37,0001.05,0000.82,0000.14,0000.97,0000.86,0000.42,16.5,23.2,,00.0,0671.6,30.8
2021-09-27T03:16:00Z,00000200,01000000,0003.59,0002.05,0001.23,0000.64,0000.37,0000.35,0000.55,0000.62,0000.46,16.6,23.2,,00.0,0671.6,30.9
2021-09-27T03:17:00Z,00000200,01000000,0003.20,0002.57,0001.17,0000.87,0000.30,0000.38,0000.94,0000.18,0000.58,16.6,23.2,,00.0,0671.6,30.9
2021-09-27T03:18:00Z,00000200,01000000,0003.19,0002.49,0001.46,0000.28,0000.39,0000.32,0000.28,0000.85,0000.47,16.7,23.2,,00.0,0671.7,30.9
2021-09-27T03:19:00Z,00000200,01000000,0003.10,0002.39,0001.31,0000.10,0000.27,0000.50,0000.79,0000.76,0000.69,16.7,23.3,,00.0,0671.7,30.9
2021-09-27T03:20:00Z,00000200,01000000,0003.52,0002.49,0001.58,0000.27,0000.40,0000.31,0000.81,0000.75,0000.32,16.7,23.3,,00.0,0671.6,30.9
2021-09-27T03:21:00Z,00000200,01000000,0003.59,0002.51,0001.25,0000.24,0000.04,0000.38,0000.75,0000.46,0000.15,16.7,23.3,,00.0,0671.6,30.9
2021-09-27T03:22:00Z,00000200,01000000,0003.93,0002.74,0001.49,0000.27,0000.63,0000.52,0010.03,0009.09,0007.28,16.6,23.2,,00.0,0671.6,30.8
2021-09-27T03:23:00Z,00000200,01000000,0010.07,0007.15,0004.51,0001.34,0001.35,0001.01,0078.45,0072.19,0056.78,16.5,23.2,,00.0,0671.6,30.8
2021-09-27T03:24:00Z,00000200,01000000,0012.41,0010.31,0006.41,0002.61,0002.24,0001.64,0138.78,0128.00,0102.16,16.5,23.2,,00.0,0671.5,30.8
2021-09-27T03:25:00Z,00000200,01000000,0017.01,0013.03,0008.03,0002.78,0002.72,0002.07,0176.59,0163.19,0129.65,16.4,23.2,,00.0,0671.6,30.8
2021-09-27T03:26:00Z,00000200,01000000,0014.39,0011.04,0006.84,0002.48,0002.54,0001.64,0161.54,0149.64,0119.72,16.4,23.1,,00.0,0671.5,30.8
2021-09-27T03:27:00Z,00000200,01000000,0009.05,0006.81,0004.10,0002.36,0001.50,0000.80,0080.15,0074.52,0059.34,16.4,23.1,,00.0,0671.5,30.8
2021-09-27T03:28:00Z,00000200,01000000,0006.52,0005.07,0002.86,0001.67,0001.00,0000.74,0050.19,0046.52,0037.37,16.4,23.1,,00.0,0671.6,30.8
2021-09-27T03:29:00Z,00000200,01000000,0009.30,0007.16,0004.13,0002.13,0001.33,0001.10,0081.33,0074.97,0059.44,16.5,23.1,,00.0,0671.6,30.8
2021-09-27T03:30:00Z,00000200,01000000,0014.30,0009.88,0006.63,0003.17,0002.28,0001.68,0134.52,0124.03,0098.80,16.5,23.1,,00.0,0671.6,30.8
2021-09-27T03:31:00Z,00000200,01000000,0009.83,0007.54,0004.90,0002.19,0001.47,0001.14,0102.43,0095.32,0076.26,16.6,23.2,,00.0,0671.6,30.9
2021-09-27T03:32:00Z,00000200,01000000,0003.00,0003.02,0001.96,0001.08,0000.43,0000.45,0010.85,0010.15,0007.95,16.7,23.2,,00.0,0671.6,30.9
2021-09-27T03:33:00Z,00000200,01000000,0003.15,0003.17,0001.48,0000.41,0000.42,0000.29,0002.50,0002.02,0001.76,16.7,23.3,,00.0,0671.6,30.9
2021-09-27T03:34:00Z,00000200,01000000,0004.48,0002.74,0001.21,0000.52,0000.45,-000.00,0001.75,0001.76,0001.38,16.8,23.3,,00.0,0671.6,30.9
2021-09-27T03:35:00Z,00000200,01000000,0003.89,0002.76,0002.03,-000.05,0000.57,0000.36,0002.39,0002.07,0001.67,16.7,23.3,,00.0,0671.6,30.9
2021-09-27T03:36:00Z,00000200,01000000,0006.14,0004.38,0002.58,0001.72,0000.71,0000.29,0022.40,0020.51,0015.73,16.6,23.2,,00.0,0671.6,30.8
2021-09-27T03:37:00Z,00000200,01000000,0017.13,0012.57,0007.52,0002.50,0002.48,0001.93,0156.82,0144.51,0115.75,16.6,23.2,,00.0,0671.6,30.8
2021-09-27T03:38:00Z,00000200,01000000,0015.50,0010.77,0007.00,0002.42,0002.56,0001.65,0149.12,0138.35,0110.41,16.5,23.2,,00.0,0671.6,30.8
2021-09-27T03:39:00Z,00000200,01000000,0005.72,0003.96,0002.57,0000.80,0000.54,0000.49,0021.58,0020.21,0016.24,16.4,23.2,,00.0,0671.5,30.8
2021-09-27T03:40:00Z,00000200,01000000,0005.81,0004.79,0003.19,0000.96,0000.82,0000.55,0022.72,0020.58,0016.15,16.4,23.1,,00.0,0671.5,30.8
2021-09-27T03:41:00Z,00000200,01000000,0011.79,0008.80,0005.16,0002.55,0001.61,0001.22,0094.49,0087.07,0069.65,16.4,23.1,,00.0,0671.5,30.8
2021-09-27T03:42:00Z,00000200,01000000,0012.54,0009.63,0005.48,0001.92,0001.99,0001.02,0112.36,0104.34,0082.91,16.4,23.1,,00.0,0671.5,30.8
2021-09-27T03:43:00Z,00000200,01000000,0016.02,0011.92,0007.93,0003.84,0003.01,0002.22,0155.55,0143.86,0115.30,16.4,23.1,,00.0,0671.5,30.8
2021-09-27T03:44:00Z,00000200,01000000,0013.42,0009.87,0006.36,0001.84,0002.02,0000.99,0123.77,0114.92,0091.98,16.5,23.1,,00.0,0671.5,30.8
2021-09-27T03:45:00Z,00000200,01000000,0013.50,0010.01,0006.25,0002.79,0001.97,0001.27,0119.80,0111.15,0088.54,16.5,23.1,,00.0,0671.5,30.8
2021-09-27T03:46:00Z,00000200,01000000,0016.71,0012.16,0007.46,0002.99,0002.58,0001.84,0156.36,0144.93,0115.87,16.6,23.2,,00.0,0671.5,30.9
2021-09-27T03:47:00Z,00000200,01000000,0013.14,0009.67,0005.81,0003.10,0001.97,0001.51,0117.84,0109.43,0087.62,16.7,23.2,,00.0,0671.5,30.9
2021-09-27T03:48:00Z,00000200,01000000,0009.52,0007.07,0004.67,0001.90,0001.25,0001.12,0078.23,0071.74,0057.60,16.7,23.2,,00.0,0671.5,30.9
2021-09-27T03:49:00Z,00000200,01000000,0010.59,0007.64,0005.17,0001.40,0001.28,0001.12,0091.17,0085.07,0068.26,16.8,23.3,,00.0,0671.5,30.9
2021-09-27T03:50:00Z,00000200,01000000,0008.05,0006.08,0003.62,0001.65,0000.99,0001.14,0055.00,0050.65,0040.75,16.8,23.3,,00.0,0671.5,30.9
2021-09-27T03:51:00Z,00000200,01000000,0004.28,0003.92,0002.39,0000.08,0000.59,0000.72,0018.53,0017.48,0013.78,16.8,23.3,,00.0,0671.5,30.9
2021-09-27T03:52:00Z,00000200,01000000,0003.40,0002.91,0002.30,0000.64,0000.48,0000.44,0003.84,0003.35,0003.06,16.7,23.2,,00.0,0671.5,30.8
2021-09-27T03:53:00Z,00000200,01000000,0003.23,0002.91,0002.20,0000.16,0000.52,0000.29,0002.51,0002.22,0001.40,16.6,23.2,,00.0,0671.5,30.8
2021-09-27T03:54:00Z,00000200,01000000,0003.06,0002.75,0001.88,0000.24,0000.54,0000.60,0002.05,0002.18,0001.69,16.6,23.2,,00.0,0671.5,30.8
2021-09-27T03:55:00Z,00000200,01000000,0003.29,0002.64,0002.03,0001.24,0000.40,0000.44,0002.06,0001.62,0001.48,16.5,23.1,,00.0,0671.4,30.8
2021-09-27T03:56:00Z,00000200,01000000,0003.62,0002.42,0001.84,0000.91,0000.36,0000.33,0002.08,0002.13,0001.34,16.5,23.1,,00.0,0671.5,30.8
2021-09-27T03:57:00Z,00000200,41000000,,,,,,,0002.62,0001.87,0001.75,16.5,23.1,,00.0,0671.4,30.8
2021-09-27T03:58:00Z,00000200,61000000,,,,,,,0001.07,0001.66,0001.19,16.2,23.3,,00.0,0670.5,30.8
2021-09-27T03:59:00Z,00000200,21000000,,,,,,,0001.18,0001.12,0000.84,16.2,23.4,,00.0,0670.5,30.8
